Time,TemperatureF,DewpointF,PressureIn,WindDirection,WindDirectionDegrees,WindSpeedMPH,WindSpeedGustMPH,Humidity,HourlyPrecipIn,Conditions,Clouds,dailyrainin,SoftwareType,DateUTC
2013-06-18 00:11:00,65.5,65.2,29.66,WNW,292,0.0,-999.0,99,-99.99,,,0.00,Acu-Link.com,2013-06-18 04:11:00,
2013-06-18 00:26:00,65.5,65.2,29.66,SW,225,0.0,-999.0,99,-99.99,,,0.00,Acu-Link.com,2013-06-18 04:26:00,
2013-06-18 00:42:00,65.3,65.0,29.66,SW,225,0.0,-999.0,99,-99.99,,,0.00,Acu-Link.com,2013-06-18 04:42:00,
2013-06-18 00:57:00,65.1,64.8,29.65,WNW,292,0.0,-999.0,99,-99.99,,,0.00,Acu-Link.com,2013-06-18 04:57:00,
2013-06-18 01:12:00,64.8,64.5,29.64,West,270,0.0,-999.0,99,-99.99,,,0.00,Acu-Link.com,2013-06-18 05:12:00,
2013-06-18 01:27:00,64.8,64.5,29.64,SW,225,0.0,-999.0,99,-99.99,,,0.00,Acu-Link.com,2013-06-18 05:27:00,
2013-06-18 01:43:00,64.8,64.5,29.63,WNW,292,0.0,-999.0,99,-99.99,,,0.00,Acu-Link.com,2013-06-18 05:43:00,
2013-06-18 01:58:00,64.8,64.5,29.63,SW,225,0.0,-999.0,99,-99.99,,,0.00,Acu-Link.com,2013-06-18 05:58:00,
2013-06-18 02:13:00,64.6,64.3,29.62,SW,225,1.7,-999.0,99,-99.99,,,0.00,Acu-Link.com,2013-06-18 06:13:00,
2013-06-18 02:28:00,64.8,64.5,29.62,SSW,202,2.7,-999.0,99,-99.99,,,0.00,Acu-Link.com,2013-06-18 06:28:00,
2013-06-18 02:44:00,64.9,64.6,29.61,SSW,202,3.7,-999.0,99,-99.99,,,0.00,Acu-Link.com,2013-06-18 06:44:00,
2013-06-18 02:59:00,65.3,65.0,29.60,SSW,202,3.2,-999.0,99,-99.99,,,0.00,Acu-Link.com,2013-06-18 06:59:00,
2013-06-18 03:14:00,65.5,65.2,29.60,SSW,202,2.7,-999.0,99,-99.99,,,0.00,Acu-Link.com,2013-06-18 07:14:00,
2013-06-18 03:30:00,65.7,65.4,29.60,SSW,202,2.7,-999.0,99,-99.99,,,0.00,Acu-Link.com,2013-06-18 07:30:00,
2013-06-18 03:45:00,65.7,65.4,29.59,South,180,3.7,-999.0,99,-99.99,,,0.00,Acu-Link.com,2013-06-18 07:45:00,
2013-06-18 04:00:00,65.5,65.2,29.59,South,180,3.2,-999.0,99,-99.99,,,0.00,Acu-Link.com,2013-06-18 08:00:00,
2013-06-18 04:16:00,65.5,65.2,29.59,SSW,202,2.7,-999.0,99,-99.99,,,0.00,Acu-Link.com,2013-06-18 08:16:00,
2013-06-18 04:31:00,65.5,65.2,29.58,South,180,3.2,-999.0,99,-99.99,,,0.00,Acu-Link.com,2013-06-18 08:31:00,
2013-06-18 04:46:00,65.5,65.2,29.58,SSW,202,5.3,-999.0,99,-99.99,,,0.00,Acu-Link.com,2013-06-18 08:46:00,
2013-06-18 05:01:00,65.7,65.4,29.59,SW,225,2.7,-999.0,99,-99.99,,,0.00,Acu-Link.com,2013-06-18 09:01:00,
2013-06-18 05:16:00,65.7,65.4,29.58,SSW,202,4.7,-999.0,99,-99.99,,,0.01,Acu-Link.com,2013-06-18 09:16:00,
2013-06-18 05:31:00,65.7,65.4,29.59,SSW,202,4.2,-999.0,99,-99.99,,,0.01,Acu-Link.com,2013-06-18 09:31:00,
2013-06-18 05:47:00,65.7,65.4,29.60,SSW,202,4.2,-999.0,99,-99.99,,,0.01,Acu-Link.com,2013-06-18 09:47:00,
2013-06-18 06:02:00,65.7,65.4,29.60,SSW,202,2.7,-999.0,99,-99.99,,,0.01,Acu-Link.com,2013-06-18 10:02:00,
2013-06-18 06:17:00,65.7,65.4,29.61,SSW,202,4.2,-999.0,99,-99.99,,,0.01,Acu-Link.com,2013-06-18 10:17:00,
2013-06-18 06:32:00,65.7,65.4,29.60,SW,225,2.7,-999.0,99,-99.99,,,0.01,Acu-Link.com,2013-06-18 10:32:00,
2013-06-18 06:47:00,65.7,65.4,29.61,SW,225,3.7,-999.0,99,-99.99,,,0.01,Acu-Link.com,2013-06-18 10:47:00,
2013-06-18 07:03:00,65.7,65.4,29.60,SSW,202,3.7,-999.0,99,-99.99,,,0.01,Acu-Link.com,2013-06-18 11:03:00,
2013-06-18 07:18:00,65.7,65.4,29.60,SW,225,3.7,-999.0,99,-99.99,,,0.01,Acu-Link.com,2013-06-18 11:18:00,
2013-06-18 07:33:00,65.8,65.5,29.60,SW,225,4.2,-999.0,99,-99.99,,,0.01,Acu-Link.com,2013-06-18 11:33:00,
2013-06-18 07:48:00,66.0,65.7,29.60,SW,225,2.7,-999.0,99,-99.99,,,0.01,Acu-Link.com,2013-06-18 11:48:00,
2013-06-18 08:04:00,66.0,65.7,29.60,SW,225,3.2,-999.0,99,-99.99,,,0.01,Acu-Link.com,2013-06-18 12:04:00,
2013-06-18 08:19:00,66.0,65.7,29.61,SSW,202,4.7,-999.0,99,-99.99,,,0.01,Acu-Link.com,2013-06-18 12:19:00,
2013-06-18 08:34:00,66.0,65.7,29.61,SSW,202,4.2,-999.0,99,-99.99,,,0.01,Acu-Link.com,2013-06-18 12:34:00,
2013-06-18 08:49:00,65.8,65.5,29.61,SW,225,2.7,-999.0,99,-99.99,,,0.01,Acu-Link.com,2013-06-18 12:49:00,
2013-06-18 09:04:00,66.2,65.9,29.62,SSW,202,3.7,-999.0,99,-99.99,,,0.01,Acu-Link.com,2013-06-18 13:04:00,
2013-06-18 09:19:00,66.2,65.9,29.62,SSW,202,4.2,-999.0,99,-99.99,,,0.01,Acu-Link.com,2013-06-18 13:19:00,
2013-06-18 09:34:00,66.6,66.3,29.62,SSW,202,3.7,-999.0,99,-99.99,,,0.01,Acu-Link.com,2013-06-18 13:34:00,
2013-06-18 09:50:00,66.4,66.1,29.62,SSW,202,3.2,-999.0,99,-99.99,,,0.02,Acu-Link.com,2013-06-18 13:50:00,
2013-06-18 10:05:00,66.4,66.1,29.62,SW,225,4.7,-999.0,99,-99.99,,,0.02,Acu-Link.com,2013-06-18 14:05:00,
2013-06-18 10:20:00,66.2,65.9,29.61,SSW,202,6.3,-999.0,99,-99.99,,,0.05,Acu-Link.com,2013-06-18 14:20:00,
2013-06-18 10:35:00,65.7,65.4,29.60,SSW,202,7.8,-999.0,99,-99.99,,,0.08,Acu-Link.com,2013-06-18 14:35:00,
2013-06-18 10:51:00,65.7,65.4,29.60,SW,225,4.7,-999.0,99,-99.99,,,0.11,Acu-Link.com,2013-06-18 14:51:00,
2013-06-18 11:06:00,66.0,65.7,29.59,SW,225,3.7,-999.0,99,-99.99,,,0.11,Acu-Link.com,2013-06-18 15:06:00,
2013-06-18 11:21:00,66.6,66.3,29.58,SSW,202,4.2,-999.0,99,-99.99,,,0.11,Acu-Link.com,2013-06-18 15:21:00,
2013-06-18 11:36:00,66.6,66.3,29.58,SW,225,4.7,-999.0,99,-99.99,,,0.11,Acu-Link.com,2013-06-18 15:36:00,
2013-06-18 11:52:00,67.1,66.8,29.58,SSW,202,5.3,-999.0,99,-99.99,,,0.11,Acu-Link.com,2013-06-18 15:52:00,
2013-06-18 12:07:00,67.3,67.0,29.58,SW,225,3.2,-999.0,99,-99.99,,,0.11,Acu-Link.com,2013-06-18 16:07:00,
2013-06-18 12:22:00,67.3,67.0,29.58,SSW,202,3.7,-999.0,99,-99.99,,,0.11,Acu-Link.com,2013-06-18 16:22:00,
2013-06-18 12:37:00,68.9,68.6,29.57,SSW,202,4.2,-999.0,99,-99.99,,,0.11,Acu-Link.com,2013-06-18 16:37:00,
2013-06-18 12:52:00,70.0,69.4,29.56,SSW,202,6.3,-999.0,98,-99.99,,,0.11,Acu-Link.com,2013-06-18 16:52:00,
2013-06-18 13:07:00,71.2,70.6,29.55,WSW,247,3.2,-999.0,98,-99.99,,,0.11,Acu-Link.com,2013-06-18 17:07:00,
2013-06-18 13:22:00,71.4,69.9,29.56,SW,225,2.2,-999.0,95,-99.99,,,0.11,Acu-Link.com,2013-06-18 17:22:00,
2013-06-18 13:38:00,72.5,71.0,29.55,SSW,202,4.7,-999.0,95,-99.99,,,0.11,Acu-Link.com,2013-06-18 17:38:00,
2013-06-18 13:53:00,72.5,71.0,29.54,South,180,4.7,-999.0,95,-99.99,,,0.11,Acu-Link.com,2013-06-18 17:53:00,
2013-06-18 14:08:00,72.0,70.8,29.55,SSW,202,5.8,-999.0,96,-99.99,,,0.11,Acu-Link.com,2013-06-18 18:08:00,
2013-06-18 14:23:00,73.2,71.7,29.54,WSW,247,4.7,-999.0,95,-99.99,,,0.11,Acu-Link.com,2013-06-18 18:23:00,
2013-06-18 14:39:00,74.3,71.5,29.54,SSW,202,6.8,-999.0,91,-99.99,,,0.11,Acu-Link.com,2013-06-18 18:39:00,
2013-06-18 14:54:00,73.8,71.0,29.53,SSW,202,6.8,-999.0,91,-99.99,,,0.11,Acu-Link.com,2013-06-18 18:54:00,
2013-06-18 15:09:00,74.1,71.3,29.54,SSW,202,6.3,-999.0,91,-99.99,,,0.11,Acu-Link.com,2013-06-18 19:09:00,
2013-06-18 15:25:00,73.6,70.5,29.53,WSW,247,6.8,-999.0,90,-99.99,,,0.11,Acu-Link.com,2013-06-18 19:25:00,
2013-06-18 15:40:00,73.0,71.5,29.53,SW,225,2.7,-999.0,95,-99.99,,,0.11,Acu-Link.com,2013-06-18 19:40:00,
2013-06-18 15:55:00,72.1,70.6,29.53,SSW,202,2.7,-999.0,95,-99.99,,,0.11,Acu-Link.com,2013-06-18 19:55:00,
2013-06-18 16:10:00,72.1,70.3,29.53,South,180,6.3,-999.0,94,-99.99,,,0.11,Acu-Link.com,2013-06-18 20:10:00,
2013-06-18 16:25:00,71.6,70.4,29.52,SSW,202,5.8,-999.0,96,-99.99,,,0.11,Acu-Link.com,2013-06-18 20:25:00,
2013-06-18 16:41:00,73.8,71.3,29.51,WSW,247,3.2,-999.0,92,-99.99,,,0.11,Acu-Link.com,2013-06-18 20:41:00,
2013-06-18 16:56:00,76.5,70.9,29.51,SSW,202,3.2,-999.0,83,-99.99,,,0.11,Acu-Link.com,2013-06-18 20:56:00,
2013-06-18 17:11:00,77.0,71.8,29.52,NE,45,2.7,-999.0,84,-99.99,,,0.11,Acu-Link.com,2013-06-18 21:11:00,
2013-06-18 17:26:00,74.5,68.3,29.52,NW,315,2.2,-999.0,81,-99.99,,,0.11,Acu-Link.com,2013-06-18 21:26:00,
2013-06-18 17:41:00,74.8,68.6,29.52,NW,315,2.7,-999.0,81,-99.99,,,0.11,Acu-Link.com,2013-06-18 21:41:00,
2013-06-18 17:56:00,74.5,68.6,29.51,SSW,202,1.7,-999.0,82,-99.99,,,0.11,Acu-Link.com,2013-06-18 21:56:00,
2013-06-18 18:11:00,74.3,68.1,29.52,ENE,67,0.0,-999.0,81,-99.99,,,0.11,Acu-Link.com,2013-06-18 22:11:00,
2013-06-18 18:27:00,74.3,68.8,29.52,East,90,0.0,-999.0,83,-99.99,,,0.11,Acu-Link.com,2013-06-18 22:27:00,
2013-06-18 18:42:00,73.8,68.7,29.53,ESE,112,1.1,-999.0,84,-99.99,,,0.11,Acu-Link.com,2013-06-18 22:42:00,
2013-06-18 18:57:00,73.0,67.9,29.53,West,270,1.7,-999.0,84,-99.99,,,0.11,Acu-Link.com,2013-06-18 22:57:00,
2013-06-18 19:12:00,73.6,67.8,29.53,NNW,337,0.0,-999.0,82,-99.99,,,0.11,Acu-Link.com,2013-06-18 23:12:00,
2013-06-18 19:28:00,72.5,66.7,29.54,ESE,112,2.2,-999.0,82,-99.99,,,0.11,Acu-Link.com,2013-06-18 23:28:00,
2013-06-18 19:43:00,71.4,66.0,29.54,NNW,337,1.7,-999.0,83,-99.99,,,0.11,Acu-Link.com,2013-06-18 23:43:00,
2013-06-18 19:58:00,71.2,65.4,29.53,South,180,1.1,-999.0,82,-99.99,,,0.11,Acu-Link.com,2013-06-18 23:58:00,
2013-06-18 20:13:00,70.5,64.7,29.54,SW,225,0.0,-999.0,82,-99.99,,,0.11,Acu-Link.com,2013-06-19 00:13:00,
2013-06-18 20:28:00,70.2,65.1,29.54,South,180,0.0,-999.0,84,-99.99,,,0.11,Acu-Link.com,2013-06-19 00:28:00,
2013-06-18 20:44:00,69.3,64.3,29.55,ENE,67,0.0,-999.0,84,-99.99,,,0.11,Acu-Link.com,2013-06-19 00:44:00,
2013-06-18 20:59:00,68.9,63.5,29.56,SSW,202,0.0,-999.0,83,-99.99,,,0.11,Acu-Link.com,2013-06-19 00:59:00,
2013-06-18 21:14:00,68.2,63.2,29.57,NW,315,0.0,-999.0,84,-99.99,,,0.11,Acu-Link.com,2013-06-19 01:14:00,
2013-06-18 21:29:00,67.8,62.8,29.57,ESE,112,0.0,-999.0,84,-99.99,,,0.11,Acu-Link.com,2013-06-19 01:29:00,
2013-06-18 21:44:00,67.1,62.8,29.57,East,90,0.0,-999.0,86,-99.99,,,0.11,Acu-Link.com,2013-06-19 01:44:00,
2013-06-18 22:00:00,66.9,63.2,29.59,NNE,22,0.0,-999.0,88,-99.99,,,0.11,Acu-Link.com,2013-06-19 02:00:00,
2013-06-18 22:15:00,66.4,62.4,29.59,East,90,0.0,-999.0,87,-99.99,,,0.11,Acu-Link.com,2013-06-19 02:15:00,
2013-06-18 22:30:00,65.7,62.0,29.60,NNW,337,3.2,-999.0,88,-99.99,,,0.11,Acu-Link.com,2013-06-19 02:30:00,
2013-06-18 22:45:00,65.5,61.5,29.60,NE,45,1.7,-999.0,87,-99.99,,,0.11,Acu-Link.com,2013-06-19 02:45:00,
2013-06-18 23:01:00,65.3,61.3,29.61,West,270,0.0,-999.0,87,-99.99,,,0.11,Acu-Link.com,2013-06-19 03:01:00,
2013-06-18 23:16:00,65.1,61.1,29.61,South,180,1.7,-999.0,87,-99.99,,,0.11,Acu-Link.com,2013-06-19 03:16:00,
2013-06-18 23:31:00,64.9,60.9,29.62,West,270,1.1,-999.0,87,-99.99,,,0.11,Acu-Link.com,2013-06-19 03:31:00,
2013-06-18 23:47:00,64.9,61.3,29.62,ENE,67,2.2,-999.0,88,-99.99,,,0.11,Acu-Link.com,2013-06-19 03:47:00,